• în România
  • Lista ţărilor
  • Pe 7 zile
  • Temperatura apei
  • Hartă satelitară
  • Meteo pe hartă
  • Widget-uri
  • user-avatar
    Intrare

    Meteo pe oră la Malanville

    Astăzi, 25 Februarie, Duminică

    Timp Temperatura Precipitaţii Vânt Presiune Umiditate
    00:00 +33°C° 0 mm 1 m/s 743 mmHg 43%
    01:00 +33°C° 0,2 mm 1 m/s 743 mmHg 45%
    02:00 +32°C° 0,2 mm 2 m/s 743 mmHg 47%
    03:00 +32°C° 0,2 mm 2 m/s 743 mmHg 49%
    04:00 +31°C° 0 mm 2 m/s 743 mmHg 50%
    05:00 +31°C° 0 mm 2 m/s 743 mmHg 52%
    06:00 +31°C° 0 mm 2 m/s 743 mmHg 54%
    07:00 +32°C° 0 mm 2 m/s 743 mmHg 50%
    08:00 +34°C° 0 mm 3 m/s 744 mmHg 46%
    09:00 +35°C° 0 mm 3 m/s 744 mmHg 42%
    10:00 +37°C° 0 mm 3 m/s 744 mmHg 38%
    11:00 +38°C° 0 mm 3 m/s 743 mmHg 34%
    12:00 +40°C° 0 mm 3 m/s 743 mmHg 30%
    13:00 +40°C° 0 mm 2 m/s 742 mmHg 28%
    14:00 +41°C° 0 mm 2 m/s 741 mmHg 26%
    15:00 +41°C° 0 mm 2 m/s 741 mmHg 25%
    16:00 +41°C° 0 mm 2 m/s 741 mmHg 25%
    17:00 +40°C° 0 mm 2 m/s 741 mmHg 26%
    18:00 +40°C° 0 mm 2 m/s 741 mmHg 27%
    19:00 +39°C° 0,9 mm 2 m/s 741 mmHg 29%
    20:00 +38°C° 0,9 mm 2 m/s 742 mmHg 31%
    21:00 +37°C° 0,9 mm 3 m/s 742 mmHg 33%
    22:00 +37°C° 0,3 mm 3 m/s 742 mmHg 35%
    23:00 +36°C° 0,3 mm 3 m/s 742 mmHg 37%

    Mâine, 26 Februarie, Luni

    Timp Temperatura Precipitaţii Vânt Presiune Umiditate
    00:00 +35°C° 0,3 mm 3 m/s 742 mmHg 39%
    01:00 +35°C° 0 mm 3 m/s 742 mmHg 41%
    02:00 +34°C° 0 mm 3 m/s 742 mmHg 43%
    03:00 +34°C° 0 mm 2 m/s 741 mmHg 45%
    04:00 +32°C° 0 mm 2 m/s 741 mmHg 46%
    05:00 +32°C° 0 mm 2 m/s 741 mmHg 46%
    06:00 +32°C° 0 mm 2 m/s 742 mmHg 47%
    07:00 +34°C° 0 mm 3 m/s 742 mmHg 42%
    08:00 +36°C° 0 mm 4 m/s 743 mmHg 36%
    09:00 +37°C° 0 mm 5 m/s 743 mmHg 31%
    10:00 +40°C° 0,1 mm 5 m/s 743 mmHg 28%
    11:00 +41°C° 0,1 mm 5 m/s 742 mmHg 24%
    12:00 +43°C° 0,1 mm 4 m/s 742 mmHg 21%
    13:00 +43°C° 0 mm 4 m/s 741 mmHg 21%
    14:00 +43°C° 0 mm 4 m/s 741 mmHg 20%
    15:00 +43°C° 0 mm 4 m/s 740 mmHg 19%
    16:00 +43°C° 0,1 mm 3 m/s 740 mmHg 20%
    17:00 +42°C° 0,1 mm 3 m/s 740 mmHg 21%
    18:00 +40°C° 0,1 mm 2 m/s 740 mmHg 22%
    19:00 +39°C° 0 mm 2 m/s 741 mmHg 22%
    20:00 +38°C° 0 mm 2 m/s 741 mmHg 22%
    21:00 +38°C° 0 mm 3 m/s 742 mmHg 22%
    22:00 +37°C° 0 mm 3 m/s 742 mmHg 21%
    23:00 +36°C° 0 mm 3 m/s 742 mmHg 21%

    Poimâine, 27 Februarie, Marţi

    Timp Temperatura Precipitaţii Vânt Presiune Umiditate
    00:00 +36°C° 0 mm 3 m/s 741 mmHg 20%
    01:00 +35°C° 0 mm 3 m/s 741 mmHg 20%
    02:00 +35°C° 0 mm 3 m/s 741 mmHg 20%
    03:00 +34°C° 0 mm 3 m/s 741 mmHg 20%
    04:00 +33°C° 0 mm 3 m/s 741 mmHg 20%
    05:00 +32°C° 0 mm 2 m/s 741 mmHg 20%
    06:00 +31°C° 0 mm 2 m/s 741 mmHg 20%
    07:00 +34°C° 0 mm 2 m/s 742 mmHg 19%
    08:00 +35°C° 0 mm 3 m/s 743 mmHg 17%
    09:00 +36°C° 0 mm 3 m/s 744 mmHg 15%
    10:00 +38°C° 0 mm 3 m/s 743 mmHg 14%
    11:00 +39°C° 0 mm 3 m/s 743 mmHg 12%
    12:00 +40°C° 0 mm 3 m/s 742 mmHg 11%
    13:00 +42°C° 0 mm 3 m/s 742 mmHg 11%
    14:00 +42°C° 0 mm 3 m/s 741 mmHg 10%
    15:00 +43°C° 0 mm 3 m/s 740 mmHg 10%
    16:00 +42°C° 0 mm 3 m/s 740 mmHg 11%
    17:00 +40°C° 0 mm 2 m/s 741 mmHg 11%
    18:00 +39°C° 0 mm 2 m/s 741 mmHg 12%
    19:00 +37°C° 0 mm 1 m/s 741 mmHg 13%
    20:00 +36°C° 0 mm 1 m/s 742 mmHg 14%
    21:00 +35°C° 0 mm 1 m/s 743 mmHg 15%
    22:00 +35°C° 0 mm 1 m/s 742 mmHg 15%
    23:00 +34°C° 0 mm 1 m/s 742 mmHg 15%

    28 Februarie, Miercuri

    Timp Temperatura Precipitaţii Vânt Presiune Umiditate
    00:00 +35°C° 0 mm 2 m/s 742 mmHg 15%
    01:00 +33°C° 0 mm 1 m/s 741 mmHg 16%
    02:00 +33°C° 0 mm 1 m/s 741 mmHg 17%
    03:00 +32°C° 0 mm 1 m/s 741 mmHg 17%
    04:00 +32°C° 0 mm 1 m/s 741 mmHg 18%
    05:00 +31°C° 0 mm 1 m/s 742 mmHg 19%
    06:00 +31°C° 0 mm 1 m/s 742 mmHg 19%
    07:00 +34°C° 0 mm 2 m/s 743 mmHg 18%
    08:00 +36°C° 0 mm 3 m/s 743 mmHg 16%
    09:00 +37°C° 0 mm 4 m/s 744 mmHg 15%
    10:00 +40°C° 0 mm 5 m/s 744 mmHg 13%
    11:00 +41°C° 0 mm 6 m/s 743 mmHg 12%
    12:00 +44°C° 0 mm 6 m/s 743 mmHg 10%
    13:00 +44°C° 0 mm 6 m/s 742 mmHg 10%
    14:00 +44°C° 0 mm 6 m/s 741 mmHg 10%
    15:00 +45°C° 0 mm 5 m/s 740 mmHg 10%
    16:00 +43°C° 0 mm 4 m/s 741 mmHg 10%
    17:00 +40°C° 0 mm 3 m/s 741 mmHg 11%
    18:00 +39°C° 0 mm 2 m/s 741 mmHg 12%
    19:00 +38°C° 0 mm 2 m/s 742 mmHg 12%
    20:00 +38°C° 0 mm 2 m/s 742 mmHg 13%
    21:00 +36°C° 0 mm 1 m/s 743 mmHg 14%
    22:00 +35°C° 0 mm 1 m/s 743 mmHg 15%
    23:00 +35°C° 0 mm 1 m/s 742 mmHg 15%

    1 Martie, Joi

    Timp Temperatura Precipitaţii Vânt Presiune Umiditate
    00:00 +34°C° 0 mm 1 m/s 742 mmHg 16%
    01:00 +35°C° 0 mm 2 m/s 742 mmHg 16%
    02:00 +34°C° 0 mm 2 m/s 742 mmHg 17%
    03:00 +34°C° 0 mm 2 m/s 741 mmHg 18%
    04:00 +32°C° 0 mm 2 m/s 742 mmHg 18%
    05:00 +31°C° 0 mm 3 m/s 742 mmHg 18%
    06:00 +31°C° 0 mm 3 m/s 743 mmHg 19%
    07:00 +34°C° 0 mm 4 m/s 743 mmHg 16%
    08:00 +36°C° 0 mm 6 m/s 744 mmHg 13%
    09:00 +39°C° 0 mm 8 m/s 744 mmHg 10%
    10:00 +41°C° 0 mm 7 m/s 744 mmHg 9%
    11:00 +44°C° 0 mm 7 m/s 743 mmHg 8%
    12:00 +45°C° 0 mm 7 m/s 742 mmHg 7%
    13:00 +45°C° 0 mm 7 m/s 742 mmHg 7%
    14:00 +46°C° 0 mm 7 m/s 741 mmHg 6%
    15:00 +46°C° 0 mm 6 m/s 740 mmHg 6%
    16:00 +43°C° 0 mm 5 m/s 740 mmHg 7%
    17:00 +42°C° 0 mm 4 m/s 740 mmHg 7%
    18:00 +40°C° 0 mm 3 m/s 741 mmHg 8%
    19:00 +39°C° 0 mm 3 m/s 741 mmHg 9%
    20:00 +38°C° 0 mm 2 m/s 742 mmHg 10%
    21:00 +37°C° 0 mm 2 m/s 742 mmHg 10%
    22:00 +36°C° 0 mm 2 m/s 742 mmHg 11%
    23:00 +35°C° 0 mm 2 m/s 742 mmHg 11%

    2 Martie, Vineri

    Timp Temperatura Precipitaţii Vânt Presiune Umiditate
    00:00 +34°C° 0 mm 2 m/s 742 mmHg 12%
    01:00 +34°C° 0 mm 2 m/s 742 mmHg 12%
    02:00 +32°C° 0 mm 2 m/s 742 mmHg 12%
    03:00 +32°C° 0 mm 2 m/s 741 mmHg 12%
    04:00 +31°C° 0 mm 2 m/s 742 mmHg 13%
    05:00 +31°C° 0 mm 2 m/s 742 mmHg 13%
    06:00 +30°C° 0 mm 2 m/s 742 mmHg 13%
    07:00 +32°C° 0 mm 2 m/s 743 mmHg 11%
    08:00 +36°C° 0 mm 3 m/s 743 mmHg 9%
    09:00 +38°C° 0 mm 3 m/s 744 mmHg 7%
    10:00 +41°C° 0 mm 4 m/s 743 mmHg 7%
    11:00 +43°C° 0 mm 5 m/s 743 mmHg 7%
    12:00 +45°C° 0 mm 6 m/s 742 mmHg 7%
    13:00 +45°C° 0 mm 6 m/s 741 mmHg 7%
    14:00 +45°C° 0 mm 6 m/s 741 mmHg 7%
    15:00 +46°C° 0 mm 6 m/s 740 mmHg 7%
    16:00 +43°C° 0 mm 5 m/s 740 mmHg 8%
    17:00 +42°C° 0 mm 4 m/s 740 mmHg 8%
    18:00 +40°C° 0 mm 3 m/s 741 mmHg 9%
    19:00 +38°C° 0 mm 3 m/s 741 mmHg 9%
    20:00 +37°C° 0 mm 2 m/s 742 mmHg 10%
    21:00 +36°C° 0 mm 2 m/s 742 mmHg 11%
    22:00 +36°C° 0 mm 2 m/s 742 mmHg 11%
    23:00 +35°C° 0 mm 2 m/s 742 mmHg 12%
    Arată mai mult